Location: Esp�n
(42.4593°N, 0.2047°W)
Time: 04:03:02
(UTC+00:00)

Cosmos 1408 - Pass Details

Date: 07 June 2020
Orbit: 469 x 495 km, 82.6° (Epoch: 04 July)

Event Time Altitude Azimuth Distance (km) Brightness Sun altitude
Exits shadow 03:23:52 13° 239° (WSW) 1,510 4.4 -9.6°
Maximum altitude 03:26:14 22° 286° (WNW) 1,111 4.1 -9.3°
Drops below altitude 10° 03:29:11 10° 339° (NNW) 1,685 5.6 -8.9°
Sets 03:31:38 0° 355° (N) 2,567 6.8 -8.5°
